SB KEPS @ AMSAT $ORB12075.O Orbital Elements 12075.OSCAR
HR AMSAT ORBITAL ELEMENTS FOR OSCAR SATELLITES FROM WA5QGD FORT WORTH,TX March 15, 2012 Send SUBSCRIBE KEPS/UNSUBSCRIBE KEPS to [email protected] only BID: ORB12075.O TO ALL RADIO AMATEURS BT
Satellite: AO-07 Catalog number: 07530 Epoch time: 12075.53343287 Element set: 331 Inclination: 101.4018 deg RA of node: 076.3695 deg Eccentricity: 0.0012094 Arg of perigee: 105.8368 deg Mean anomaly: 254.4040 deg Mean motion: 12.53588154 rev/day Decay rate: -2.7e-07 rev/day^2 Epoch rev: 70831 Checksum: 278
Satellite: FO-29 Catalog number: 24278 Epoch time: 12074.82409920 Element set: 0806 Inclination: 098.5741 deg RA of node: 187.8547 deg Eccentricity: 0.0349680 Arg of perigee: 273.6890 deg Mean anomaly: 082.4331 deg Mean motion: 13.52978227 rev/day Decay rate: 5.2e-07 rev/day^2 Epoch rev: 76919 Checksum: 352
Satellite: SO-33 Catalog number: 25509 Epoch time: 12073.61287409 Element set: 0185 Inclination: 031.4308 deg RA of node: 154.5103 deg Eccentricity: 0.0352369 Arg of perigee: 087.1003 deg Mean anomaly: 276.9883 deg Mean motion: 14.28680178 rev/day Decay rate: 3.04e-06 rev/day^2 Epoch rev: 69897 Checksum: 320
Satellite: RS-22 Catalog number: 27939 Epoch time: 12075.70266082 Element set: 174 Inclination: 097.8209 deg RA of node: 281.2766 deg Eccentricity: 0.0013135 Arg of perigee: 197.6009 deg Mean anomaly: 162.4748 deg Mean motion: 14.63932811 rev/day Decay rate: 6.77e-06 rev/day^2 Epoch rev: 45220 Checksum: 317
Satellite: VO-52 Catalog number: 28650 Epoch time: 12074.78718574 Element set: 0051 Inclination: 097.6075 deg RA of node: 110.3260 deg Eccentricity: 0.0026493 Arg of perigee: 353.8582 deg Mean anomaly: 006.2329 deg Mean motion: 14.82741198 rev/day Decay rate: 1.242e-05 rev/day^2 Epoch rev: 37098 Checksum: 312
Satellite: HO-68 Catalog number: 36122 Epoch time: 12075.65028170 Element set: 288 Inclination: 100.3740 deg RA of node: 136.8449 deg Eccentricity: 0.0007101 Arg of perigee: 325.3339 deg Mean anomaly: 034.7317 deg Mean motion: 13.16293846 rev/day Decay rate: -4.4e-07 rev/day^2 Epoch rev: 10808 Checksum: 282
/EX SB KEPS @ AMSAT $ORB12075.D Orbital Elements 12075.MICROS
HR AMSAT ORBITAL ELEMENTS FOR THE MICROSATS FROM WA5QGD FORT WORTH,TX March 15, 2012 Send SUBSCRIBE KEPS/UNSUBSCRIBE KEPS to [email protected] only BID: ORB12075.D TO ALL RADIO AMATEURS BT
Satellite: UO-11 Catalog number: 14781 Epoch time: 12075.91392301 Element set: 814 Inclination: 097.9666 deg RA of node: 136.2088 deg Eccentricity: 0.0008862 Arg of perigee: 342.7361 deg Mean anomaly: 017.3552 deg Mean motion: 14.80344709 rev/day Decay rate: 3.96e-06 rev/day^2 Epoch rev: 50613 Checksum: 306
Satellite: AO-16 Catalog number: 20439 Epoch time: 12075.88030704 Element set: 420 Inclination: 098.4209 deg RA of node: 021.9122 deg Eccentricity: 0.0011864 Arg of perigee: 075.8420 deg Mean anomaly: 284.4077 deg Mean motion: 14.32026746 rev/day Decay rate: 1.74e-06 rev/day^2 Epoch rev: 15664 Checksum: 282
Satellite: LO-19 Catalog number: 20442 Epoch time: 12074.86961708 Element set: 0348 Inclination: 098.3866 deg RA of node: 024.2710 deg Eccentricity: 0.0012809 Arg of perigee: 072.2144 deg Mean anomaly: 288.0433 deg Mean motion: 14.32246739 rev/day Decay rate: 2.31e-06 rev/day^2 Epoch rev: 15668 Checksum: 303
Satellite: AO-27 Catalog number: 22825 Epoch time: 12074.89016720 Element set: 54 Inclination: 098.5656 deg RA of node: 019.2166 deg Eccentricity: 0.0008208 Arg of perigee: 191.3034 deg Mean anomaly: 168.7963 deg Mean motion: 14.29437344 rev/day Decay rate: 5.6e-07 rev/day^2 Epoch rev: 96300 Checksum: 308
Satellite: IO-26 Catalog number: 22826 Epoch time: 12074.97901427 Element set: 0805 Inclination: 098.5598 deg RA of node: 019.6984 deg Eccentricity: 0.0008605 Arg of perigee: 185.2757 deg Mean anomaly: 174.8332 deg Mean motion: 14.29709233 rev/day Decay rate: 1.77e-06 rev/day^2 Epoch rev: 96314 Checksum: 345
Satellite: GO-32 Catalog number: 25397 Epoch time: 12075.47569770 Element set: 726 Inclination: 098.3556 deg RA of node: 058.8405 deg Eccentricity: 0.0001460 Arg of perigee: 157.6458 deg Mean anomaly: 202.4784 deg Mean motion: 14.23262515 rev/day Decay rate: 1.27e-06 rev/day^2 Epoch rev: 71069 Checksum: 320
Satellite: NO-44 Catalog number: 26931 Epoch time: 12074.74671729 Element set: 0994 Inclination: 067.0537 deg RA of node: 003.7383 deg Eccentricity: 0.0006812 Arg of perigee: 279.6077 deg Mean anomaly: 080.4272 deg Mean motion: 14.29770214 rev/day Decay rate: 1.67e-06 rev/day^2 Epoch rev: 54574 Checksum: 324
Satellite: SO-50 Catalog number: 27607 Epoch time: 12075.84364993 Element set: 713 Inclination: 064.5577 deg RA of node: 218.8229 deg Eccentricity: 0.0085042 Arg of perigee: 267.0467 deg Mean anomaly: 092.0904 deg Mean motion: 14.72257586 rev/day Decay rate: 8.60e-06 rev/day^2 Epoch rev: 49622 Checksum: 334
Satellite: CO-55 Catalog number: 27844 Epoch time: 12074.56895344 Element set: 0331 Inclination: 098.7046 deg RA of node: 084.3226 deg Eccentricity: 0.0010343 Arg of perigee: 132.7307 deg Mean anomaly: 227.4739 deg Mean motion: 14.20976014 rev/day Decay rate: 2.47e-06 rev/day^2 Epoch rev: 45145 Checksum: 303
Satellite: CO-57 Catalog number: 27848 Epoch time: 12074.55624810 Element set: 279 Inclination: 098.7156 deg RA of node: 083.6041 deg Eccentricity: 0.0010555 Arg of perigee: 137.5968 deg Mean anomaly: 222.6071 deg Mean motion: 14.20734754 rev/day Decay rate: 4.44e-06 rev/day^2 Epoch rev: 45139 Checksum: 318
Satellite: AO-51 Catalog number: 28375 Epoch time: 12075.47487417 Element set: 217 Inclination: 098.1354 deg RA of node: 045.1661 deg Eccentricity: 0.0083874 Arg of perigee: 325.6274 deg Mean anomaly: 033.9518 deg Mean motion: 14.40910523 rev/day Decay rate: 2.43e-06 rev/day^2 Epoch rev: 40527 Checksum: 305
Satellite: CP3 Catalog number: 31129 Epoch time: 12074.67089594 Element set: 0117 Inclination: 097.8881 deg RA of node: 088.0109 deg Eccentricity: 0.0102498 Arg of perigee: 057.6295 deg Mean anomaly: 303.4765 deg Mean motion: 14.52929767 rev/day Decay rate: 6.14e-06 rev/day^2 Epoch rev: 26025 Checksum: 330
Satellite: CO-65 Catalog number: 32785 Epoch time: 12074.70788086 Element set: 0257 Inclination: 097.8112 deg RA of node: 137.9623 deg Eccentricity: 0.0014944 Arg of perigee: 015.3942 deg Mean anomaly: 344.7681 deg Mean motion: 14.82750722 rev/day Decay rate: 9.89e-06 rev/day^2 Epoch rev: 20976 Checksum: 344
Satellite: PRISM Catalog number: 33493 Epoch time: 12075.78520407 Element set: 516 Inclination: 098.1568 deg RA of node: 214.2356 deg Eccentricity: 0.0018287 Arg of perigee: 237.7967 deg Mean anomaly: 122.1601 deg Mean motion: 14.83362375 rev/day Decay rate: 3.712e-05 rev/day^2 Epoch rev: 16990 Checksum: 310
Satellite: SOHLA-1 Catalog number: 33496 Epoch time: 12074.96230463 Element set: 0679 Inclination: 098.0945 deg RA of node: 187.3808 deg Eccentricity: 0.0006479 Arg of perigee: 349.7552 deg Mean anomaly: 010.3521 deg Mean motion: 14.69891742 rev/day Decay rate: 5.64e-06 rev/day^2 Epoch rev: 16840 Checksum: 333
Satellite: SO-67 Catalog number: 35870 Epoch time: 12075.84921946 Element set: 773 Inclination: 097.2451 deg RA of node: 114.8773 deg Eccentricity: 0.0003384 Arg of perigee: 117.6074 deg Mean anomaly: 002.2233 deg Mean motion: 15.23019383 rev/day Decay rate: 4.697e-05 rev/day^2 Epoch rev: 13840 Checksum: 312
Satellite: TISAT-1 Catalog number: 36799 Epoch time: 12075.95129132 Element set: 791 Inclination: 098.0688 deg RA of node: 151.6061 deg Eccentricity: 0.0016414 Arg of perigee: 114.0069 deg Mean anomaly: 246.2861 deg Mean motion: 14.81619629 rev/day Decay rate: 1.788e-05 rev/day^2 Epoch rev: 9068 Checksum: 327
Satellite: STUDSAT Catalog number: 36801 Epoch time: 12074.93503214 Element set: 0365 Inclination: 098.0761 deg RA of node: 150.9250 deg Eccentricity: 0.0013810 Arg of perigee: 104.6075 deg Mean anomaly: 255.6649 deg Mean motion: 14.83388885 rev/day Decay rate: 6.938e-05 rev/day^2 Epoch rev: 09054 Checksum: 307
Satellite: FO-69 Catalog number: 37227 Epoch time: 12046.04422040 Element set: 0103 Inclination: 071.9672 deg RA of node: 223.6606 deg Eccentricity: 0.0017759 Arg of perigee: 195.0744 deg Mean anomaly: 164.9889 deg Mean motion: 14.76923927 rev/day Decay rate: 3.30e-06 rev/day^2 Epoch rev: 01791 Checksum: 314
Satellite: FO-70 Catalog number: 37380 Epoch time: 12046.50349291 Element set: 0106 Inclination: 071.9705 deg RA of node: 223.0530 deg Eccentricity: 0.0018152 Arg of perigee: 191.1227 deg Mean anomaly: 168.9536 deg Mean motion: 14.76682035 rev/day Decay rate: 3.31e-06 rev/day^2 Epoch rev: 01787 Checksum: 285
/EX SB KEPS @ AMSAT $ORB12075.W Orbital Elements 12075.WEATHER
HR AMSAT ORBITAL ELEMENTS FOR WEATHER SATELLITES FROM WA5QGD FORT WORTH,TX March 15, 2012 Send SUBSCRIBE KEPS/UNSUBSCRIBE KEPS to [email protected] only BID: ORB12075.W TO ALL RADIO AMATEURS BT
Satellite: NOAA-10 Catalog number: 16969 Epoch time: 12074.67868145 Element set: 0856 Inclination: 098.5933 deg RA of node: 105.3716 deg Eccentricity: 0.0012762 Arg of perigee: 147.9110 deg Mean anomaly: 212.2849 deg Mean motion: 14.27533856 rev/day Decay rate: 9.5e-07 rev/day^2 Epoch rev: 32638 Checksum: 330
Satellite: NOAA-11 Catalog number: 19531 Epoch time: 12074.74319147 Element set: 0851 Inclination: 098.7337 deg RA of node: 161.8812 deg Eccentricity: 0.0011710 Arg of perigee: 130.6076 deg Mean anomaly: 229.6125 deg Mean motion: 14.14955497 rev/day Decay rate: -2.11e-06 rev/day^2 Epoch rev: 21115 Checksum: 283
Satellite: NOAA-12 Catalog number: 21263 Epoch time: 12074.99152017 Element set: 0355 Inclination: 098.7359 deg RA of node: 097.0690 deg Eccentricity: 0.0014644 Arg of perigee: 113.5048 deg Mean anomaly: 246.7685 deg Mean motion: 14.25482091 rev/day Decay rate: -1.15e-06 rev/day^2 Epoch rev: 08313 Checksum: 298
